KB9MLJ Weather Reports


time (UTC)temp
C
wind
direction
speed
KPH
gust
KPH
rain 1hr
cm
rain 24hr
cm
rain mn
cm
humidity
%
barometer
mb
20260503225108 18 208 9.7 14.5 0.00 0.03 0.03 51 1007.8
20260503224605 18 190 11.3 14.5 0.00 0.03 0.03 51 1007.8
20260503224103 18 148 11.3 14.5 0.00 0.03 0.03 51 1007.8
20260503223601 18 161 4.8 8.0 0.00 0.03 0.03 51 1008.2
20260503223056 18 149 20.9 25.7 0.00 0.03 0.03 51 1007.8
20260503222554 18 183 9.7 12.9 0.00 0.03 0.03 51 1008.2
20260503222052 18 217 11.3 12.9 0.00 0.03 0.03 52 1007.8
20260503221550 18 191 20.9 25.7 0.00 0.03 0.03 51 1008.2
20260503221047 18 223 11.3 16.1 0.00 0.03 0.03 50 1008.2
20260503220543 18 212 9.7 12.9 0.00 0.03 0.03 50 1008.2
20260503220040 18 237 17.7 22.5 0.00 0.03 0.03 51 1008.2
20260503215537 18 176 16.1 32.2 0.00 0.03 0.03 51 1008.2
20260503215034 17 263 8.0 9.7 0.00 0.03 0.03 51 1008.2
20260503214533 17 165 14.5 16.1 0.00 0.03 0.03 50 1008.2
20260503214029 17 194 19.3 27.4 0.00 0.03 0.03 51 1008.2
20260503213527 17 152 20.9 29.0 0.00 0.03 0.03 50 1008.5
20260503213024 17 223 12.9 16.1 0.00 0.03 0.03 50 1008.5
20260503212521 18 191 11.3 14.5 0.00 0.03 0.03 49 1008.5
20260503212019 18 184 22.5 37.0 0.00 0.03 0.03 48 1008.5
20260503211515 17 193 17.7 24.1 0.00 0.03 0.03 48 1008.5
20260503211011 17 195 27.4 32.2 0.00 0.03 0.03 48 1008.5
20260503210508 17 168 16.1 27.4 0.00 0.03 0.03 49 1008.5
20260503210003 17 208 22.5 32.2 0.00 0.03 0.03 49 1008.8
20260503205500 17 247 20.9 38.6 0.00 0.03 0.03 48 1008.8
20260503204956 17 183 11.3 14.5 0.00 0.03 0.03 47 1009.2
20260503204454 18 155 22.5 29.0 0.00 0.03 0.03 47 1009.2
20260503203950 17 194 27.4 37.0 0.00 0.03 0.03 47 1009.2
20260503203448 17 194 19.3 33.8 0.00 0.03 0.03 46 1009.2
20260503202944 17 146 20.9 29.0 0.00 0.03 0.03 45 1009.5
20260503202443 17 187 17.7 27.4 0.00 0.03 0.03 46 1009.2
20260503201941 17 210 24.1 32.2 0.00 0.03 0.03 47 1009.5
20260503201438 17 190 17.7 25.7 0.00 0.03 0.03 47 1009.5
20260503200935 17 166 32.2 38.6 0.00 0.03 0.03 45 1009.9
20260503200432 17 195 17.7 24.1 0.00 0.03 0.03 45 1009.9
20260503195928 17 155 19.3 25.7 0.00 0.03 0.03 44 1009.9
20260503195426 17 206 25.7 38.6 0.00 0.03 0.03 45 1009.5
20260503194922 17 147 27.4 38.6 0.00 0.03 0.03 46 1009.9
20260503194419 17 172 17.7 24.1 0.00 0.03 0.03 48 1010.2
20260503193914 17 151 11.3 12.9 0.00 0.03 0.03 48 1010.2
20260503193410 16 188 19.3 25.7 0.00 0.03 0.03 47 1010.2
20260503192906 16 182 30.6 41.8 0.00 0.03 0.03 47 1010.2
20260503192402 16 166 17.7 29.0 0.00 0.03 0.03 49 1010.5
20260503191858 17 164 12.9 20.9 0.00 0.03 0.03 48 1010.2
20260503191356 17 200 17.7 20.9 0.00 0.03 0.03 48 1010.2
20260503190852 17 205 35.4 43.5 0.00 0.03 0.03 48 1010.5
20260503190349 17 179 16.1 27.4 0.00 0.03 0.03 51 1010.5
20260503185846 16 165 20.9 29.0 0.00 0.03 0.03 52 1010.9
20260503185343 16 203 27.4 41.8 0.00 0.03 0.03 52 1010.5
20260503184842 16 172 9.7 12.9 0.00 0.03 0.03 53 1011.2
20260503184339 16 187 24.1 29.0 0.00 0.03 0.03 52 1010.9
20260503183834 16 184 17.7 24.1 0.00 0.03 0.03 52 1011.2
20260503183332 16 176 25.7 32.2 0.00 0.03 0.03 50 1011.7
20260503182829 16 168 20.9 29.0 0.00 0.03 0.03 51 1011.7
20260503182329 16 162 20.9 29.0 0.00 0.03 0.03 51 1011.7
20260503181825 15 152 16.1 17.7 0.00 0.03 0.03 54 1012.0
20260503181322 15 159 22.5 29.0 0.00 0.03 0.03 55 1012.3
20260503180818 15 161 17.7 24.1 0.00 0.03 0.03 56 1012.0
20260503180317 14 183 9.7 11.3 0.00 0.03 0.03 58 1012.7
20260503175813 14 156 14.5 17.7 0.00 0.03 0.03 58 1012.7
20260503175311 14 187 11.3 20.9 0.00 0.03 0.03 58 1013.0
20260503174806 13 262 4.8 9.7 0.00 0.03 0.03 60 1013.3
20260503174304 13 182 12.9 20.9 0.00 0.03 0.03 61 1013.3
20260503173800 12 177 14.5 17.7 0.00 0.03 0.03 63 1013.3
20260503173255 12 147 11.3 12.9 0.00 0.03 0.03 67 1013.7
20260503172753 12 257 14.5 16.1 0.00 0.03 0.03 65 1013.7
20260503172250 12 182 11.3 14.5 0.00 0.03 0.03 71 1014.0
20260503171746 12 267 4.8 4.8 0.00 0.03 0.03 69 1014.0
20260503171243 12 158 8.0 11.3 0.00 0.03 0.03 68 1014.0
20260503170740 12 204 4.8 8.0 0.00 0.03 0.03 68 1014.0
20260503170237 12 184 4.8 4.8 0.00 0.03 0.03 67 1014.0
20260503160159 12 249 3.2 3.2 0.00 0.00 0.00 67 1015.0
20260503150629 12 221 17.7 24.1 0.00 0.00 0.00 62 1015.0
20260503150125 12 240 6.4 9.7 0.00 0.00 0.00 63 1014.7
20260503131019 10 211 3.2 3.2 0.00 0.00 0.00 66 1015.7
20260503130516 10 228 14.5 24.1 0.00 0.00 0.00 66 1015.7
20260503110413 6 146 4.8 8.0 0.00 0.00 0.00 70 1015.4
20260503090304 6 248 8.0 9.7 0.00 0.00 0.00 65 1015.7
20260503081231 7 248 6.4 9.7 0.00 0.00 0.00 62 1015.7
20260503080726 7 244 1.6 1.6 0.00 0.00 0.00 62 1016.1
20260503080224 7 247 3.2 4.8 0.00 0.00 0.00 62 1015.7
20260503072700 6 224 3.2 3.2 0.00 0.00 0.00 65 1016.1
20260503072157 6 220 4.8 4.8 0.00 0.00 0.00 66 1016.1
20260503071654 6 211 1.6 3.2 0.00 0.00 0.00 65 1016.1
20260503071151 6 220 1.6 1.6 0.00 0.00 0.00 65 1016.1
20260503070648 6 172 3.2 3.2 0.00 0.00 0.00 66 1016.1
20260503070146 6 211 0.0 1.6 0.00 0.00 0.00 66 1016.1
20260503060110 6 229 1.6 1.6 0.00 0.00 0.00 67 1016.8
20260503055101 6 228 1.6 1.6 0.00 0.00 0.00 68 1016.8
20260503054557 6 228 1.6 3.2 0.00 0.00 0.00 67 1016.8
20260503054054 6 227 1.6 1.6 0.00 0.00 0.00 67 1016.8
20260503053552 6 227 0.0 0.0 0.00 0.00 0.00 66 1016.8
20260503053050 6 227 0.0 0.0 0.00 0.00 0.00 65 1017.2
20260503052547 6 228 1.6 1.6 0.00 0.00 0.00 65 1017.2
20260503052043 6 226 1.6 1.6 0.00 0.00 0.00 64 1017.2
20260503051538 7 210 1.6 3.2 0.00 0.00 0.00 63 1017.2
20260503051036 7 211 1.6 1.6 0.00 0.00 0.00 63 1017.2
20260503050531 7 219 1.6 1.6 0.00 0.00 0.00 63 1017.2
20260503050030 7 219 1.6 1.6 0.00 0.00 0.00 62 1017.2
20260503045527 7 220 1.6 1.6 0.00 0.00 0.00 61 1016.8
20260503045024 7 208 3.2 3.2 0.00 0.00 0.00 61 1017.2
20260503044520 7 220 1.6 3.2 0.00 0.00 0.00 60 1016.8
20260503044018 7 219 1.6 3.2 0.00 0.00 0.00 61 1017.2
20260503043514 7 218 0.0 1.6 0.00 0.00 0.00 60 1016.8
20260503043010 7 215 0.0 1.6 0.00 0.00 0.00 59 1017.2
20260503042508 7 229 3.2 3.2 0.00 0.00 0.00 59 1017.2
20260503042004 7 210 1.6 1.6 0.00 0.00 0.00 59 1017.2
20260503041501 8 214 1.6 3.2 0.00 0.00 0.00 59 1017.2
20260503040959 7 208 4.8 8.0 0.00 0.00 0.00 59 1017.2
20260503040455 8 223 1.6 3.2 0.00 0.00 0.00 60 1017.2
20260503035952 7 219 3.2 3.2 0.00 0.00 0.00 60 1017.2
20260503035449 7 221 1.6 1.6 0.00 0.00 0.00 62 1017.2
20260503034947 7 223 1.6 3.2 0.00 0.00 0.00 62 1017.2
20260503034444 7 223 1.6 3.2 0.00 0.00 0.00 62 1017.5
20260503033941 7 223 1.6 1.6 0.00 0.00 0.00 61 1017.2
20260503033438 8 223 1.6 1.6 0.00 0.00 0.00 60 1017.2
20260503032936 8 223 4.8 4.8 0.00 0.00 0.00 59 1017.2
20260503032435 8 223 3.2 3.2 0.00 0.00 0.00 59 1017.2
20260503031932 8 223 0.0 1.6 0.00 0.00 0.00 58 1017.2
20260503031430 8 224 4.8 4.8 0.00 0.00 0.00 59 1017.5
20260503030926 8 224 1.6 1.6 0.00 0.00 0.00 58 1017.2
20260503030423 8 224 0.0 1.6 0.00 0.00 0.00 58 1017.2
20260503025920 8 224 1.6 1.6 0.00 0.00 0.00 58 1017.2
20260503025416 8 224 1.6 3.2 0.00 0.00 0.00 58 1017.2
20260503024914 8 224 1.6 1.6 0.00 0.00 0.00 59 1017.5
20260503024411 8 224 1.6 1.6 0.00 0.00 0.00 59 1017.2
20260503023908 8 224 1.6 1.6 0.00 0.00 0.00 59 1017.5
20260503023405 8 224 1.6 1.6 0.00 0.00 0.00 57 1017.2
20260503022902 9 225 1.6 3.2 0.00 0.00 0.00 57 1017.2
20260503022401 9 229 3.2 3.2 0.00 0.00 0.00 56 1017.5
20260503021858 9 230 1.6 3.2 0.00 0.00 0.00 56 1017.2
20260503021354 9 230 1.6 3.2 0.00 0.00 0.00 56 1017.5
20260503020852 9 230 1.6 1.6 0.00 0.00 0.00 55 1017.2
20260503020350 9 230 1.6 1.6 0.00 0.00 0.00 56 1017.2
20260503015846 9 230 1.6 1.6 0.00 0.00 0.00 56 1017.2
20260503015343 10 230 0.0 1.6 0.00 0.00 0.00 54 1017.2
20260503014838 10 230 1.6 1.6 0.00 0.00 0.00 54 1016.8
20260503014336 10 238 1.6 1.6 0.00 0.00 0.00 53 1017.2
20260503013834 10 238 1.6 1.6 0.00 0.00 0.00 54 1017.2
20260503013331 10 238 1.6 1.6 0.00 0.00 0.00 53 1017.2
20260503012828 10 238 1.6 1.6 0.00 0.00 0.00 53 1017.2
20260503012326 10 238 0.0 1.6 0.00 0.00 0.00 52 1016.8
20260503011822 10 238 1.6 1.6 0.00 0.00 0.00 52 1017.2
20260503011319 10 238 0.0 0.0 0.00 0.00 0.00 52 1017.2
20260503010815 10 238 0.0 0.0 0.00 0.00 0.00 51 1017.2
20260503010313 10 238 0.0 1.6 0.00 0.00 0.00 50 1017.2
20260503005809 11 238 0.0 1.6 0.00 0.00 0.00 49 1016.8
20260503005307 11 238 3.2 3.2 0.00 0.00 0.00 48 1016.8
20260503004803 11 238 3.2 3.2 0.00 0.00 0.00 48 1017.2
20260503004301 11 259 0.0 0.0 0.00 0.00 0.00 47 1017.2
20260503003758 11 258 1.6 1.6 0.00 0.00 0.00 46 1017.2
20260503003255 11 274 4.8 4.8 0.00 0.00 0.00 45 1017.2
20260503002751 11 269 3.2 3.2 0.00 0.00 0.00 44 1017.2
20260503002248 12 284 3.2 3.2 0.00 0.00 0.00 45 1016.8
20260503001744 12 274 6.4 8.0 0.00 0.00 0.00 44 1016.8
20260503001241 12 264 4.8 4.8 0.00 0.00 0.00 44 1017.2
20260503000739 12 268 4.8 4.8 0.00 0.00 0.00 44 1017.2
20260503000236 12 285 8.0 9.7 0.00 0.00 0.00 43 1016.8
20260502235733 12 273 6.4 8.0 0.00 0.00 0.00 43 1017.2
20260502235231 12 245 6.4 9.7 0.00 0.00 0.00 42 1016.8
20260502234727 12 257 11.3 12.9 0.00 0.00 0.00 43 1017.2
20260502234225 13 268 11.3 14.5 0.00 0.00 0.00 43 1017.2
20260502233720 13 275 4.8 9.7 0.00 0.00 0.00 43 1017.2
20260502233217 13 315 4.8 4.8 0.00 0.00 0.00 43 1017.2
20260502232712 12 295 11.3 12.9 0.00 0.00 0.00 43 1017.2
20260502232210 12 262 8.0 9.7 0.00 0.00 0.00 43 1017.2
20260502231707 13 276 8.0 11.3 0.00 0.00 0.00 42 1017.2
20260502231205 13 292 4.8 8.0 0.00 0.00 0.00 42 1017.2
20260502230703 12 292 9.7 12.9 0.00 0.00 0.00 42 1017.2
20260502230201 13 250 8.0 9.7 0.00 0.00 0.00 42 1017.2
20260502225656 12 258 4.8 8.0 0.00 0.00 0.00 42 1017.2